Location: Ladrillo (historical)
(32.8195°N, 117.2231°W)
Time: 03:00:44
(UTC+00:00)

ADEOS - Pass Details

Date: 29 October 2020
Orbit: 793 x 794 km, 98.9° (Epoch: 26 November)

Event Time Altitude Azimuth Distance (km) Brightness Sun altitude
Rises 12:42:25 0° 6° (N) 3,298 6.8 -17.8°
Reaches altitude 10° 12:44:48 10° 1° (N) 2,365 6.0 -17.3°
Maximum altitude 12:49:49 50° 287° (WNW) 1,006 3.7 -16.3°
Drops below altitude 10° 12:54:50 10° 213° (SSW) 2,352 5.8 -15.2°
Sets 12:57:12 0° 208° (SSW) 3,278 6.6 -14.7°
